COSMOS 792

Satellite information

Favourite Embed

Satellite Type and Status

PAYLOADIN ORBIT

Key statistics

Satellite COSMOS 792 at a glance.

Uptime

18220

Days in orbit

Revolutions

≈ 12.5

Per day

Orbit

LEO

Low Earth Orbit

Inclination

74.1

Latest

Satellite identification and parameters

Extended collection of information and parameters for COSMOS 792.

Object identification

Identified? True

Debris? False

Object name: COSMOS 792

International designator: 1976-008B

Object number (NORAD): 8608

Object ID (CCSDS): 8608

Country: COMMONWEALTH OF INDEPENDENT STATES (CIS)

Current information (Y/N): Y

RCS size: MEDIUM

Orbital parameters

Period: 115.161 minutes

Inclination: 74.0539 deg

SMA: 7840.884 km

Apoapsis: 1489.707 km

Periapsis: 1435.791 km

RAAN: 228.0785 deg

Eccentricy: 0.00343809

Argument of periapsis: 38.4779 deg

Mean anomaly: 38.9375 deg

Mean motion: 12.5041801 rev/day

Mean motion (dot): -0.00000004 rev/day2

B* drag term: 0.000075452129 1/REarth

Two-line elements (TLE)

Creation date: Dec. 16, 2025, 2:19 a.m.

Reference frame: TEME

Reference center: EARTH

Epoch: Dec. 15, 2025, 8:50 p.m. UTC

TLE line 0: 0 COSMOS 792

TLE line 1: 1 08608U 76008B 25349.86806935 -.00000004 00000-0 75452-4 0 9993

TLE line 2: 2 08608 74.0539 228.0785 0034381 38.4779 38.9375 12.50418010276980

Live tracking on map

Real-time ground track for satellite COSMOS 792.

In-orbit conjunctions

A list of the most updated potential collisions computed for object COSMOS 792.

Target Orbit TCA Probability of collision Miss distance Type
COSMOS 2192 LEO 2024-12-31 23:47:10 0.0001653533 197.0 (m) PAYLOAD

Associated space launch

Military communications satellites

COSMOS 792 was lifted into orbit during the mission ‘Kosmos-3M | Strela-1M 105-112’, on board a Kosmos-3M space rocket.

The launch took place on Jan. 28, 1976, 10:39 a.m. from 132/1 (132L).

For more information about the launch, click the button.

Launch to space Kosmos-3M | Strela-1M 105-112
Kosmos-3M | Strela-1M 105-112

Agency: N/A

Status: Launch Successful

Launch date: Jan. 28, 1976, 10:39 a.m. UTC

Rocket: Kosmos-3M

Launch pad: 132/1 (132L)

Location: Plesetsk Cosmodrome, Russian Federation

...

Latest news about this satellite

There are no fresh news available about this satellite. Check back as we update our databases every day.


Newsletter sign-up

Weekly statistics, charts and insights to help you stay on top of the space industry.